When you browse on this site, cookies collect data to enhance your experience and personalize the content and advertising you see.
Visit our Privacy Policy to learn more. By continuing to use the site, you agree to this use of cookies and data.
  • In Portugal
  • List of Countries
  • For 7 days
  • Water Temperature
  • Satellite Maps
  • Weather Map
  • Weather Widgets
  • user-avatar
    Login

    Hourly Weather Fedoseevka

    Today, 18 February, Monday

    Time Temperature Precipitation Wind Pressure Humidity
    00:00 -5°C° 0 mm 6 mps 739 mmHg 80%
    01:00 -6°C° 0 mm 6 mps 740 mmHg 81%
    02:00 -7°C° 0 mm 4 mps 740 mmHg 84%
    03:00 -7°C° 0 mm 5 mps 741 mmHg 85%
    04:00 -7°C° 0 mm 5 mps 742 mmHg 85%
    05:00 -9°C° 0 mm 6 mps 742 mmHg 85%
    06:00 -9°C° 0 mm 6 mps 743 mmHg 86%
    07:00 -9°C° 0 mm 6 mps 744 mmHg 86%
    08:00 -9°C° 0 mm 6 mps 744 mmHg 87%
    09:00 -8°C° 0 mm 6 mps 745 mmHg 85%
    10:00 -8°C° 0 mm 6 mps 745 mmHg 83%
    11:00 -6°C° 0 mm 6 mps 746 mmHg 82%
    12:00 -6°C° 0 mm 6 mps 746 mmHg 81%
    13:00 -6°C° 0 mm 6 mps 747 mmHg 80%
    14:00 -6°C° 0 mm 6 mps 747 mmHg 79%
    15:00 -6°C° 0 mm 5 mps 748 mmHg 81%
    16:00 -7°C° 0 mm 4 mps 748 mmHg 83%
    17:00 -8°C° 0 mm 4 mps 748 mmHg 85%
    18:00 -8°C° 0 mm 3 mps 749 mmHg 87%
    19:00 -9°C° 0 mm 3 mps 749 mmHg 89%
    20:00 -10°C° 0 mm 3 mps 750 mmHg 91%
    21:00 -10°C° 0 mm 2 mps 750 mmHg 91%
    22:00 -10°C° 0 mm 2 mps 750 mmHg 92%
    23:00 -12°C° 0 mm 2 mps 751 mmHg 92%

    Tomorrow, 19 February, Tuesday

    Time Temperature Precipitation Wind Pressure Humidity
    00:00 -10°C° 0 mm 1 mps 751 mmHg 92%
    01:00 -11°C° 0 mm 1 mps 751 mmHg 93%
    02:00 -11°C° 0 mm 0 mps 751 mmHg 93%
    03:00 -11°C° 0 mm 1 mps 751 mmHg 92%
    04:00 -11°C° 0 mm 1 mps 751 mmHg 92%
    05:00 -13°C° 0 mm 2 mps 751 mmHg 91%
    06:00 -13°C° 0 mm 2 mps 751 mmHg 91%
    07:00 -13°C° 0 mm 3 mps 751 mmHg 90%
    08:00 -13°C° 0 mm 3 mps 751 mmHg 90%
    09:00 -10°C° 0 mm 3 mps 750 mmHg 88%
    10:00 -10°C° 0 mm 4 mps 750 mmHg 87%
    11:00 -8°C° 0 mm 5 mps 750 mmHg 86%
    12:00 -7°C° 0 mm 5 mps 749 mmHg 85%
    13:00 -6°C° 0 mm 5 mps 749 mmHg 84%
    14:00 -6°C° 0 mm 5 mps 748 mmHg 84%
    15:00 -6°C° 0 mm 5 mps 748 mmHg 85%
    16:00 -6°C° 0 mm 5 mps 747 mmHg 86%
    17:00 -7°C° 0 mm 5 mps 747 mmHg 86%
    18:00 -7°C° 0 mm 5 mps 746 mmHg 87%
    19:00 -8°C° 0 mm 5 mps 746 mmHg 88%
    20:00 -9°C° 0 mm 6 mps 746 mmHg 89%
    21:00 -9°C° 0 mm 6 mps 745 mmHg 89%
    22:00 -9°C° 0 mm 6 mps 745 mmHg 88%
    23:00 -9°C° 0 mm 6 mps 744 mmHg 88%

    Day after tomorrow, 20 February, Wednesday

    Time Temperature Precipitation Wind Pressure Humidity
    00:00 -9°C° 0 mm 6 mps 744 mmHg 89%
    01:00 -9°C° 0 mm 6 mps 743 mmHg 89%
    02:00 -9°C° 0 mm 6 mps 743 mmHg 90%
    03:00 -8°C° 0 mm 6 mps 742 mmHg 90%
    04:00 -8°C° 0 mm 6 mps 741 mmHg 91%
    05:00 -6°C° 0 mm 6 mps 740 mmHg 91%
    06:00 -6°C° 0 mm 6 mps 740 mmHg 91%
    07:00 -5°C° 0 mm 6 mps 740 mmHg 91%
    08:00 -4°C° 0 mm 6 mps 740 mmHg 91%
    09:00 -4°C° 0 mm 6 mps 739 mmHg 91%
    10:00 -4°C° 0 mm 6 mps 739 mmHg 91%
    11:00 -3°C° 0 mm 7 mps 739 mmHg 91%
    12:00 -3°C° 0.2 mm 6 mps 739 mmHg 92%
    13:00 -3°C° 0.2 mm 6 mps 739 mmHg 92%
    14:00 -2°C° 0.2 mm 6 mps 738 mmHg 92%
    15:00 -2°C° 0 mm 6 mps 738 mmHg 92%
    16:00 -1°C° 0 mm 5 mps 738 mmHg 92%
    17:00 -1°C° 0 mm 5 mps 738 mmHg 93%
    18:00 -1°C° 0 mm 5 mps 738 mmHg 92%
    19:00 -1°C° 0 mm 5 mps 738 mmHg 92%
    20:00 -1°C° 0 mm 5 mps 738 mmHg 92%
    21:00 -1°C° 0 mm 5 mps 738 mmHg 92%
    22:00 -1°C° 0 mm 5 mps 738 mmHg 91%
    23:00 -2°C° 0 mm 6 mps 738 mmHg 91%

    21 February, Thursday

    Time Temperature Precipitation Wind Pressure Humidity
    00:00 -2°C° 0 mm 6 mps 737 mmHg 91%
    01:00 -2°C° 0 mm 6 mps 737 mmHg 90%
    02:00 -2°C° 0 mm 6 mps 737 mmHg 90%
    03:00 -2°C° 0.2 mm 6 mps 736 mmHg 90%
    04:00 -3°C° 0.2 mm 6 mps 736 mmHg 90%
    05:00 -3°C° 0.2 mm 7 mps 736 mmHg 90%
    06:00 -4°C° 0.1 mm 6 mps 736 mmHg 88%
    07:00 -5°C° 0.1 mm 6 mps 736 mmHg 86%
    08:00 -6°C° 0.1 mm 5 mps 737 mmHg 83%
    09:00 -6°C° 0 mm 6 mps 737 mmHg 84%
    10:00 -5°C° 0 mm 6 mps 737 mmHg 84%
    11:00 -5°C° 0 mm 6 mps 737 mmHg 84%
    12:00 -5°C° 0.1 mm 6 mps 737 mmHg 83%
    13:00 -4°C° 0.1 mm 6 mps 738 mmHg 82%
    14:00 -4°C° 0.1 mm 7 mps 738 mmHg 81%
    15:00 -5°C° 0.1 mm 6 mps 738 mmHg 80%
    16:00 -6°C° 0.1 mm 6 mps 739 mmHg 80%
    17:00 -8°C° 0.1 mm 6 mps 739 mmHg 79%
    18:00 -9°C° 0 mm 6 mps 740 mmHg 79%
    19:00 -10°C° 0 mm 5 mps 741 mmHg 80%
    20:00 -11°C° 0 mm 5 mps 741 mmHg 81%
    21:00 -11°C° 0 mm 5 mps 742 mmHg 82%
    22:00 -12°C° 0 mm 5 mps 743 mmHg 82%
    23:00 -12°C° 0 mm 5 mps 743 mmHg 83%

    22 February, Friday

    Time Temperature Precipitation Wind Pressure Humidity
    00:00 -13°C° 0 mm 5 mps 744 mmHg 84%
    01:00 -13°C° 0 mm 5 mps 744 mmHg 84%
    02:00 -13°C° 0 mm 5 mps 745 mmHg 85%
    03:00 -14°C° 0 mm 5 mps 745 mmHg 85%
    04:00 -14°C° 0 mm 5 mps 746 mmHg 85%
    05:00 -14°C° 0 mm 5 mps 746 mmHg 84%
    06:00 -15°C° 0 mm 5 mps 747 mmHg 84%
    07:00 -15°C° 0 mm 5 mps 748 mmHg 84%
    08:00 -15°C° 0 mm 5 mps 749 mmHg 83%
    09:00 -15°C° 0 mm 6 mps 750 mmHg 81%
    10:00 -15°C° 0 mm 7 mps 750 mmHg 79%
    11:00 -14°C° 0 mm 7 mps 751 mmHg 77%
    12:00 -13°C° 0 mm 7 mps 751 mmHg 76%
    13:00 -13°C° 0 mm 7 mps 751 mmHg 75%
    14:00 -11°C° 0 mm 6 mps 752 mmHg 73%
    15:00 -12°C° 0 mm 6 mps 752 mmHg 76%
    16:00 -13°C° 0 mm 5 mps 752 mmHg 79%
    17:00 -13°C° 0 mm 5 mps 753 mmHg 81%
    18:00 -14°C° 0 mm 4 mps 753 mmHg 83%
    19:00 -14°C° 0 mm 4 mps 754 mmHg 85%
    20:00 -14°C° 0 mm 4 mps 754 mmHg 86%
    21:00 -15°C° 0 mm 4 mps 755 mmHg 87%
    22:00 -15°C° 0 mm 4 mps 755 mmHg 88%
    23:00 -16°C° 0 mm 4 mps 756 mmHg 89%

    23 February, Saturday

    Time Temperature Precipitation Wind Pressure Humidity
    00:00 -16°C° 0 mm 4 mps 756 mmHg 90%
    01:00 -16°C° 0 mm 3 mps 756 mmHg 91%
    02:00 -16°C° 0 mm 3 mps 756 mmHg 92%
    03:00 -17°C° 0 mm 3 mps 756 mmHg 92%
    04:00 -17°C° 0 mm 3 mps 756 mmHg 93%
    05:00 -17°C° 0 mm 3 mps 756 mmHg 93%
    06:00 -17°C° 0 mm 3 mps 756 mmHg 93%
    07:00 -17°C° 0 mm 3 mps 756 mmHg 93%
    08:00 -17°C° 0 mm 3 mps 756 mmHg 94%
    09:00 -16°C° 0 mm 3 mps 756 mmHg 90%
    10:00 -13°C° 0 mm 2 mps 755 mmHg 87%
    11:00 -12°C° 0 mm 2 mps 755 mmHg 84%
    12:00 -10°C° 0 mm 2 mps 755 mmHg 82%
    13:00 -10°C° 0 mm 2 mps 754 mmHg 79%
    14:00 -9°C° 0 mm 2 mps 753 mmHg 77%
    15:00 -9°C° 0 mm 1 mps 753 mmHg 78%
    16:00 -10°C° 0 mm 1 mps 753 mmHg 79%
    17:00 -11°C° 0 mm 1 mps 753 mmHg 80%
    18:00 -11°C° 0 mm 1 mps 753 mmHg 82%
    19:00 -11°C° 0 mm 1 mps 753 mmHg 83%
    20:00 -12°C° 0 mm 1 mps 753 mmHg 84%
    21:00 -12°C° 0 mm 1 mps 753 mmHg 86%
    22:00 -12°C° 0 mm 1 mps 753 mmHg 87%
    23:00 -13°C° 0 mm 1 mps 753 mmHg 89%
    Show more